Weather in Garkusha

Russia / Krasnodar Krai     45°19′11″N   36°51′18″E
temp.,
°C
wind,
m/s
gust,
m/s
humid.,
%
clouds,
%
prec.,
mm/h
press.,
hPa
HPBL,
m
10 may, mon
mon1000:00+12nw685519 0.2 10241287
03:00+12nnw69541 0.3 10251457
06:00+12nnw69530 0.0 10251548
09:00+12nnw78500 0.1 10251624
12:00+12nnw77512 0.0 10251467
15:00+13nw67492 0.0 10241364
18:00+14wnw56495 0.0 1022634
21:00+12wsw910665 0.0 1021507
11 may, tue
tue1100:00+12wsw101167100 0.4 1018574
03:00+12w91269100 0.4 1017563
06:00+12w91272100 0.2 10151216
09:00+11w91273100 1.1 10141420
12:00+11w91086100 1.1 1014951
15:00+11nnw5679100 4.5 1014674
18:00+12nw336378 0.3 1015857
21:00+11sw2170100 0.4 1015423
12 may, wed
wed1200:00+10se2278100 0.2 1015222
03:00+10se2286100 1.5 1014209
06:00+11se3590100 0.3 1014267
09:00+13s9108097 1.4 1014819
12:00+14s897095 0.1 1014888
15:00+14s78665 0.1 1014676
18:00+14s45675 0.0 1014307
21:00+13sse226821 0.0 101479
13 may, thu
thu1300:00+13ene346416 0.0 1013105
03:00+13ene588469 0.0 1012211
06:00+13ene598895 0.0 1011218
09:00+16ene6875100 0.0 1011189
12:00+19e4460100 0.0 1010131
15:00+21se45560 0.0 1009176
18:00+21ese45677 0.0 100966
21:00+18se227364 0.0 100911
14 may, fri
fri1400:00+17sw556756 0.0 100934
03:00+15wsw5585100 0.2 100963
06:00+15nne11855 0.4 101012
09:00+17nnw337515 0.4 101075
12:00+17n5576100 0.0 1011160
15:00+17n55762 0.0 1011119
18:00+18n45730 0.0 101171
21:00+16nnw33765 0.0 101116